SCP
0 0 0 0 0 0 0 0 0 0 0 0 0 0 0 0 0 0 0 0 0 0 0 0 0 0 0 0 -0 0 0 0 0 0 0 0 0 0
0 0 0 0 0 0 0 0 0 0 0 0 0 0 0 0 0 0 0 0 0 0 0 0 0 0 0 0 0 0 0 0 0 0 0 0 0 0
0 0 0 0 0 0 0 0 0 0 0 0 0 0 0 0 0 0 0 0 0 0 0 0 0 0 0 0 0 0 0 0 0 0 0 0 0 0
0 0 0 0 0 0 0 0 0 0 0 0 0 0 0 0 0 0 0 0 0 0 0 0 0 0 0 0 0 0 0 0 0 0 0 0 0 0
0 0 0 0 0 0 0 0 0 0 0 0 0 0 0 0 0 -0 0 0 0 0 0 0 0 0 0 0 0 0 0 0 0 -0 -0 0 0 0
0 0 0 0 0 0 0 0 0 0 0 0 0 0 0 0 0 0 0 0 0 0 0 0 0 0 0 0 0 0 0 -0 -0 -0 0 0 0 0
0 0 0 0 0 0 0 0 0 0 0 0 0 0 0 0 0 0 0 0 0 0 0 0 0 0 0 0 0 0 0 0 -0 -0 0 0 0 0
0 0 0 0 0 0 0 0 0 0 0 0 0 0 0 0 0 0 0 0 0 0 0 0 0 0 0 0 0 0 0 -0 -0 -0 0 0 0 0
0 0 0 0 0 0 0 0 0 0 0 0 0 0 0 0 0 0 0 0 0 0 0 0 0 0 0 0 0 0 0 0 -0 -0 0 0 0 0
0 0 0 0 0 0 0 0 0 0 0 0 0 0 0 0 0 0 0 0 0 0 0 0 0 0 0 0 0 0 0 -0 0 0 0 0 -0 -0
0 0 0 0 0 0 0 0 0 0 0 0 0 0 0 0 0 0 -0 0 0 0 0 0 0 0 0 0 0 0 0 0 0 0 0 -0 0 0
0 0 0 0 0 0 0 0 0 0 0 0 0 0 0 0 0 -0 -0 0 0 -0 0 -0 0 0 0 0 0 0 0 0 0 0 0 0 0 0
0 0 0 0 0 0 0 0 0 0 0 0 0 0 0 0 -0 -0 -0 -0 0 0 0 -0 0 0 0 0 0 0 0 0 0 0 0 0 0 -0
0 0 0 0 0 0 0 0 0 0 0 0 0 0 0 0 -0 0 -0 -0 0 0 -0 -0 0 0 0 0 0 0 0 0 0 0 0 0 -0 -0
0 0 0 -0 -0 -0 0 -0 -0 0 0 0 0 0 0 0 0 -0 -0 0 -0 -0 -0 -0 -0 0 0 0 0 0 0 0 0 0 0 0 0 0
0 0 0 0 0 0 0 0 0 0 0 0 0 0 0 0 0 -0 -0 -0 -0 -0 0 0 0 0 0 0 0 0 0 0 0 0 0 0 0 0
0 0 0 0 0 0 0 0 0 0 0 0 0 0 0 0 0 0 -0 -0 -0 0 0 0 0 0 0 0 0 0 0 0 0 0 0 0 0 0
0 0 0 0 0 0 0 0 0 0 0 0 0 0 0 0 0 0 0 -0 -0 -0 0 0 0 0 0 0 0 0 0 -0 -0 0 0 0 0 0
0 0 0 0 0 0 0 0 0 0 0 0 0 0 0 0 0 0 0 -0 -0 -0 0 0 0 0 0 0 0 0 0 0 -0 0 -0 0 0 0
0 0 0 0 0 0 0 0 0 0 0 0 0 0 0 0 0 0 -0 -0 -0 -0 0 0 -0 -0 0 0 0 0 0 -0 0 0 -0 0 0 0
0 0 0 0 0 0 0 0 0 0 0 0 0 0 0 0 0 -0 -0 -0 -0 -0 0 -0 -0 -0 -0 -0 0 0 0 -0 -0 0 0 0 0 0
0 0 0 0 0 0 0 0 0 0 0 0 0 0 0 0 -0 -0 0 0 -0 -0 0 -0 -0 -0 -0 -0 -0 -0 -0 -0 -0 -0 -0 0 0 0
0 0 0 0 0 0 0 0 0 0 0 0 0 0 0 0 -0 -0 0 0 -0 0 0 -0 -0 -0 -0 -0 -0 -0 -0 -0 -0 0 0 0 0 0
Wind_Speed_500mb
13 9 12 3 15 23 21 22 23 31 38 33 48 42 52 54 47 50 66 65 54 53 54 63 64 73 59 60 67 64 56 58 60 62 63 58 62 58
10 12 5 11 10 11 13 17 24 27 33 41 49 43 56 49 45 44 53 70 50 56 58 57 65 53 50 58 61 57 55 54 61 76 73 68 65 58
15 21 16 14 12 7 13 20 23 27 37 47 46 48 48 53 51 53 64 65 53 45 50 55 59 50 52 57 59 59 59 57 65 77 82 80 77 61
13 14 12 15 17 18 20 22 26 31 37 45 51 49 52 52 51 63 66 61 52 36 42 50 47 54 57 50 53 57 59 55 69 76 86 84 74 52
9 15 16 16 22 23 15 24 28 34 36 43 50 49 50 48 62 67 64 60 49 43 44 39 51 48 39 50 46 53 48 62 72 81 88 87 56 42
6 10 17 27 31 29 29 31 35 40 41 47 51 51 50 59 65 63 72 59 57 52 41 52 45 50 52 49 49 49 64 69 74 80 84 64 46 40
10 20 24 25 30 36 39 39 41 45 49 51 47 51 56 68 62 66 61 61 63 54 57 66 60 41 42 43 48 61 63 64 69 81 66 49 48 40
9 14 20 23 29 37 36 34 28 40 45 47 49 57 58 52 59 61 51 67 66 65 67 68 45 52 56 48 48 51 54 61 74 66 48 49 50 43
13 12 21 38 40 41 40 36 32 26 33 44 49 40 51 51 54 59 58 58 63 69 62 67 53 75 69 46 25 36 55 65 62 53 44 44 50 42
22 29 36 38 42 47 42 39 35 30 36 29 28 41 44 46 47 48 52 57 65 60 59 57 75 76 79 14 24 45 50 57 55 42 40 43 49 47
24 28 37 43 45 42 40 41 40 37 32 33 32 37 36 41 41 42 53 60 70 66 43 66 72 79 72 32 42 50 58 58 40 35 41 44 47 44
11 27 38 42 37 47 48 50 48 47 44 47 43 36 36 36 39 54 63 61 56 62 54 66 67 65 57 45 69 60 68 44 39 36 43 48 46 47
11 20 32 39 43 51 53 47 46 46 43 43 40 42 40 38 52 56 56 50 52 47 51 63 64 66 55 66 71 59 60 38 44 42 49 46 41 38
18 37 40 44 41 43 45 45 42 44 42 45 47 47 48 51 49 53 65 53 30 35 52 50 53 51 46 53 61 69 60 35 46 46 48 48 44 41
25 35 37 37 40 38 38 41 45 49 45 48 50 49 50 46 50 62 69 75 47 42 45 48 42 44 35 39 61 64 60 34 45 50 44 48 53 51
29 32 28 27 31 35 39 41 43 49 45 48 49 47 48 47 53 59 70 86 73 59 55 47 41 40 37 36 56 64 50 39 45 46 44 40 41 52
30 24 30 34 38 42 44 43 44 51 49 48 50 50 52 50 57 46 67 77 88 70 66 55 47 38 34 33 56 62 60 44 39 40 41 41 40 42
28 31 33 36 40 43 44 46 47 55 52 49 49 50 53 54 56 53 57 74 89 80 67 60 56 54 50 46 50 67 66 49 38 36 40 47 44 45
29 30 32 35 38 40 41 44 47 50 48 50 51 50 52 55 56 56 48 66 83 88 73 60 53 51 51 49 50 54 68 52 38 38 42 48 50 57
27 30 31 34 36 38 40 42 45 48 47 47 48 49 52 56 53 59 60 62 74 87 80 63 51 44 38 36 41 56 59 50 36 39 49 50 51 59
25 28 31 32 34 34 36 39 41 43 41 42 42 41 52 55 53 59 60 55 66 82 81 70 51 35 23 29 44 51 37 41 62 47 52 65 73 75
22 25 28 30 31 32 33 37 40 42 45 41 45 37 51 54 58 59 59 63 61 78 77 66 47 36 24 32 39 37 30 55 63 63 64 70 66 69
21 24 24 26 27 29 32 36 38 45 49 46 49 37 51 57 58 50 59 57 54 75 80 69 52 37 25 28 27 32 21 38 34 29 36 41 46 52
Wind_Direction_500mb
27 60 96 349 16 17 13 2 343 327 328 332 337 328 333 336 345 329 325 330 341 338 335 331 332 334 333 335 340 340 332 334 337 338 334 324 327 325
0 35 66 78 35 29 359 329 360 338 325 324 318 329 327 339 335 326 322 330 340 326 334 334 330 327 325 335 336 334 330 329 333 335 334 327 324 317
42 26 36 16 357 338 342 332 335 326 326 320 328 323 339 329 329 314 322 324 320 338 336 331 321 320 322 329 332 328 322 322 328 331 332 329 327 318
19 353 355 4 354 331 338 332 325 318 316 325 318 332 328 334 314 316 322 321 333 340 326 327 319 322 321 323 325 322 316 320 327 328 324 325 325 315
21 23 9 350 330 336 338 318 316 318 325 320 322 322 321 323 312 316 323 333 346 331 323 316 327 337 338 328 321 323 325 329 327 326 325 324 324 321
16 343 342 338 334 336 337 336 334 333 333 329 325 327 331 319 327 333 332 345 337 347 356 339 337 330 335 331 332 332 332 328 324 322 322 324 325 325
9 346 338 327 333 339 340 341 341 339 333 332 325 323 331 331 340 340 345 338 341 351 341 333 337 343 347 343 331 331 325 317 317 319 324 333 332 332
7 349 341 324 324 330 333 333 337 328 324 319 324 331 339 352 350 352 349 350 349 353 346 345 356 342 328 322 323 322 316 318 321 320 330 331 332 331
335 330 310 322 330 330 334 333 330 335 319 318 323 348 348 353 344 347 350 346 345 346 341 339 343 337 338 341 346 316 322 318 329 335 330 329 328 335
15 359 349 344 342 342 343 343 345 341 336 346 357 353 347 347 343 341 342 341 341 346 345 336 340 337 341 6 343 317 320 334 335 335 333 331 326 327
3 357 350 347 347 354 2 6 9 15 19 20 8 1 349 353 348 340 346 343 338 345 346 336 341 337 338 359 338 350 351 344 343 342 339 332 329 339
4 7 343 357 16 19 20 21 15 14 12 12 8 4 1 357 345 348 345 340 342 345 343 341 342 342 335 341 346 356 350 352 351 352 346 349 346 347
35 344 8 25 27 23 25 21 14 6 15 9 9 7 8 348 347 344 349 343 339 345 339 337 337 337 336 334 346 353 354 356 2 4 359 359 1 353
27 29 28 26 28 17 14 15 6 7 17 11 10 7 4 355 355 347 344 350 357 344 331 336 340 345 345 346 347 350 360 6 7 6 2 6 6 10
54 35 25 24 22 19 12 13 1 8 14 11 8 5 2 358 346 348 354 6 6 355 354 354 353 351 354 350 350 1 355 7 8 8 1 9 9 13
54 41 26 21 22 17 19 17 8 5 12 10 6 3 2 5 351 347 356 360 3 1 359 1 4 4 353 356 359 5 6 360 3 8 9 15 19 26
50 32 29 26 25 21 19 16 10 360 11 10 6 4 2 4 0 345 351 0 4 359 359 2 6 10 11 3 359 11 10 9 6 7 14 23 26 28
43 35 29 26 24 19 16 12 11 2 7 9 6 5 2 1 359 357 348 3 1 3 359 3 3 6 16 23 20 18 14 12 18 23 28 31 36 40
35 33 28 26 22 17 14 12 10 3 4 9 4 4 3 4 0 358 353 354 0 2 1 4 5 7 7 4 12 10 9 15 28 37 43 44 45 52
40 29 25 24 20 14 12 11 8 0 2 8 3 6 5 4 0 359 356 350 357 359 0 5 6 5 4 355 351 10 6 13 41 54 59 61 59 62
42 30 20 20 16 13 10 11 3 354 355 3 359 14 5 1 4 360 356 352 353 358 358 2 3 1 10 18 14 15 8 41 58 65 58 67 65 62
35 36 19 14 12 10 7 10 353 349 359 3 1 24 11 360 2 358 0 358 352 354 356 360 4 8 23 15 11 27 40 56 62 66 63 64 64 62
30 34 19 10 4 11 3 5 347 359 3 5 6 30 19 358 2 1 2 1 352 352 357 0 6 14 22 18 17 18 39 49 53 44 44 49 55 61
Wind_Speed_850mb
13 9 12 3 15 23 21 22 23 31 38 33 48 42 52 54 47 50 66 65 54 53 54 63 64 73 59 60 67 64 56 58 60 62 63 58 62 58
10 12 5 11 10 11 13 17 24 27 33 41 49 43 56 49 45 44 53 70 50 56 58 57 65 53 50 58 61 57 55 54 61 76 73 68 65 58
15 21 16 14 12 7 13 20 23 27 37 47 46 48 48 53 51 53 64 65 53 45 50 55 59 50 52 57 59 59 59 57 65 77 82 80 77 61
13 14 12 15 17 18 20 22 26 31 37 45 51 49 52 52 51 63 66 61 52 36 42 50 47 54 57 50 53 57 59 55 69 76 86 84 74 52
9 15 16 16 22 23 15 24 28 34 36 43 50 49 50 48 62 67 64 60 49 43 44 39 51 48 39 50 46 53 48 62 72 81 88 87 56 42
6 10 17 27 31 29 29 31 35 40 41 47 51 51 50 59 65 63 72 59 57 52 41 52 45 50 52 49 49 49 64 69 74 80 84 64 46 40
10 20 24 25 30 36 39 39 41 45 49 51 47 51 56 68 62 66 61 61 63 54 57 66 60 41 42 43 48 61 63 64 69 81 66 49 48 40
9 14 20 23 29 37 36 34 28 40 45 47 49 57 58 52 59 61 51 67 66 65 67 68 45 52 56 48 48 51 54 61 74 66 48 49 50 43
13 12 21 38 40 41 40 36 32 26 33 44 49 40 51 51 54 59 58 58 63 69 62 67 53 75 69 46 25 36 55 65 62 53 44 44 50 42
22 29 36 38 42 47 42 39 35 30 36 29 28 41 44 46 47 48 52 57 65 60 59 57 75 76 79 14 24 45 50 57 55 42 40 43 49 47
24 28 37 43 45 42 40 41 40 37 32 33 32 37 36 41 41 42 53 60 70 66 43 66 72 79 72 32 42 50 58 58 40 35 41 44 47 44
11 27 38 42 37 47 48 50 48 47 44 47 43 36 36 36 39 54 63 61 56 62 54 66 67 65 57 45 69 60 68 44 39 36 43 48 46 47
11 20 32 39 43 51 53 47 46 46 43 43 40 42 40 38 52 56 56 50 52 47 51 63 64 66 55 66 71 59 60 38 44 42 49 46 41 38
18 37 40 44 41 43 45 45 42 44 42 45 47 47 48 51 49 53 65 53 30 35 52 50 53 51 46 53 61 69 60 35 46 46 48 48 44 41
25 35 37 37 40 38 38 41 45 49 45 48 50 49 50 46 50 62 69 75 47 42 45 48 42 44 35 39 61 64 60 34 45 50 44 48 53 51
29 32 28 27 31 35 39 41 43 49 45 48 49 47 48 47 53 59 70 86 73 59 55 47 41 40 37 36 56 64 50 39 45 46 44 40 41 52
30 24 30 34 38 42 44 43 44 51 49 48 50 50 52 50 57 46 67 77 88 70 66 55 47 38 34 33 56 62 60 44 39 40 41 41 40 42
28 31 33 36 40 43 44 46 47 55 52 49 49 50 53 54 56 53 57 74 89 80 67 60 56 54 50 46 50 67 66 49 38 36 40 47 44 45
29 30 32 35 38 40 41 44 47 50 48 50 51 50 52 55 56 56 48 66 83 88 73 60 53 51 51 49 50 54 68 52 38 38 42 48 50 57
27 30 31 34 36 38 40 42 45 48 47 47 48 49 52 56 53 59 60 62 74 87 80 63 51 44 38 36 41 56 59 50 36 39 49 50 51 59
25 28 31 32 34 34 36 39 41 43 41 42 42 41 52 55 53 59 60 55 66 82 81 70 51 35 23 29 44 51 37 41 62 47 52 65 73 75
22 25 28 30 31 32 33 37 40 42 45 41 45 37 51 54 58 59 59 63 61 78 77 66 47 36 24 32 39 37 30 55 63 63 64 70 66 69
21 24 24 26 27 29 32 36 38 45 49 46 49 37 51 57 58 50 59 57 54 75 80 69 52 37 25 28 27 32 21 38 34 29 36 41 46 52
Wind_Direction_850mb
27 60 96 349 16 17 13 2 343 327 328 332 337 328 333 336 345 329 325 330 341 338 335 331 332 334 333 335 340 340 332 334 337 338 334 324 327 325
0 35 66 78 35 29 359 329 360 338 325 324 318 329 327 339 335 326 322 330 340 326 334 334 330 327 325 335 336 334 330 329 333 335 334 327 324 317
42 26 36 16 357 338 342 332 335 326 326 320 328 323 339 329 329 314 322 324 320 338 336 331 321 320 322 329 332 328 322 322 328 331 332 329 327 318
19 353 355 4 354 331 338 332 325 318 316 325 318 332 328 334 314 316 322 321 333 340 326 327 319 322 321 323 325 322 316 320 327 328 324 325 325 315
21 23 9 350 330 336 338 318 316 318 325 320 322 322 321 323 312 316 323 333 346 331 323 316 327 337 338 328 321 323 325 329 327 326 325 324 324 321
16 343 342 338 334 336 337 336 334 333 333 329 325 327 331 319 327 333 332 345 337 347 356 339 337 330 335 331 332 332 332 328 324 322 322 324 325 325
9 346 338 327 333 339 340 341 341 339 333 332 325 323 331 331 340 340 345 338 341 351 341 333 337 343 347 343 331 331 325 317 317 319 324 333 332 332
7 349 341 324 324 330 333 333 337 328 324 319 324 331 339 352 350 352 349 350 349 353 346 345 356 342 328 322 323 322 316 318 321 320 330 331 332 331
335 330 310 322 330 330 334 333 330 335 319 318 323 348 348 353 344 347 350 346 345 346 341 339 343 337 338 341 346 316 322 318 329 335 330 329 328 335
15 359 349 344 342 342 343 343 345 341 336 346 357 353 347 347 343 341 342 341 341 346 345 336 340 337 341 6 343 317 320 334 335 335 333 331 326 327
3 357 350 347 347 354 2 6 9 15 19 20 8 1 349 353 348 340 346 343 338 345 346 336 341 337 338 359 338 350 351 344 343 342 339 332 329 339
4 7 343 357 16 19 20 21 15 14 12 12 8 4 1 357 345 348 345 340 342 345 343 341 342 342 335 341 346 356 350 352 351 352 346 349 346 347
35 344 8 25 27 23 25 21 14 6 15 9 9 7 8 348 347 344 349 343 339 345 339 337 337 337 336 334 346 353 354 356 2 4 359 359 1 353
27 29 28 26 28 17 14 15 6 7 17 11 10 7 4 355 355 347 344 350 357 344 331 336 340 345 345 346 347 350 360 6 7 6 2 6 6 10
54 35 25 24 22 19 12 13 1 8 14 11 8 5 2 358 346 348 354 6 6 355 354 354 353 351 354 350 350 1 355 7 8 8 1 9 9 13
54 41 26 21 22 17 19 17 8 5 12 10 6 3 2 5 351 347 356 360 3 1 359 1 4 4 353 356 359 5 6 360 3 8 9 15 19 26
50 32 29 26 25 21 19 16 10 360 11 10 6 4 2 4 0 345 351 0 4 359 359 2 6 10 11 3 359 11 10 9 6 7 14 23 26 28
43 35 29 26 24 19 16 12 11 2 7 9 6 5 2 1 359 357 348 3 1 3 359 3 3 6 16 23 20 18 14 12 18 23 28 31 36 40
35 33 28 26 22 17 14 12 10 3 4 9 4 4 3 4 0 358 353 354 0 2 1 4 5 7 7 4 12 10 9 15 28 37 43 44 45 52
40 29 25 24 20 14 12 11 8 0 2 8 3 6 5 4 0 359 356 350 357 359 0 5 6 5 4 355 351 10 6 13 41 54 59 61 59 62
42 30 20 20 16 13 10 11 3 354 355 3 359 14 5 1 4 360 356 352 353 358 358 2 3 1 10 18 14 15 8 41 58 65 58 67 65 62
35 36 19 14 12 10 7 10 353 349 359 3 1 24 11 360 2 358 0 358 352 354 356 360 4 8 23 15 11 27 40 56 62 66 63 64 64 62
30 34 19 10 4 11 3 5 347 359 3 5 6 30 19 358 2 1 2 1 352 352 357 0 6 14 22 18 17 18 39 49 53 44 44 49 55 61